Portada
METAR-TAF:

METAR-TAF

Aeropuertos :

Perpiñán, Francia

Aeropuerto de Perpiñán-Rivesaltes

latitud: 42-44N, longitud: 002-52E, altitud: 43 m

Observación

El informe se hizo hace 11 minutos, a las 16:30 UTC
Viento 7 kt del este-noreste
Temperatura 25°C
Humedad 50%
Presión 1016 hPa
Visibilidad 10 km o más
sin nubes por debajo de 1500 m y sin presencia de cumulonimbus.

METAR: LFMP 281630Z AUTO 07007KT CAVOK 25/14 Q1016 NOSIG

Hora: 18:41 (16:41 UTC)

Pronóstico

El informe se hizo hace 2 horas y 41 minutos, a las 14:00 UTC
Pronóstico válido del 28 a las 15 UTC al 29 a las 15 UTC
Viento 15 kt del este-sureste
Visibilidad 10 km o más
sin nubes por debajo de 1500 m y sin presencia de cumulonimbus.
Temporalmente
del 28 a las 19 UTC al 29 a las 09 UTC
Viento 10 kt con dirección variable

TAF: LFMP 281400Z 2815/2915 12015KT CAVOK TEMPO 2819/2909 VRB10KT

Observaciones y pronósticos meteorológicos de más de 4000 aeropuertos (mensajes METAR y TAF).

Los puntos amarillos y rojos representan las estaciones disponibles.

Ponga el ratón en el punto deseado para ver el nombre de la estación.

Haga clic para ver las observaciones y los pronósticos meteorológicos.

Para cambiar el mapa : haga clic en los botones verdes con una cruz de color negro para hacer un zoom, en el botón verde con un guión para alejar o en las flechas verdes para mapas adyacentes.


METAR-TAF: